Lapse_Rate
7.5 7.2 7.0 6.7 6.9 6.6 7.1 8.2 8.0 8.1 7.7 8.0 8.3 8.5 8.5 8.3 7.8 8.0 7.8 7.5 7.2 6.9 7.0 6.8 6.7 6.5 5.9 6.2 6.5 6.6 6.7 6.9 7.0 7.0 6.9 6.5 6.8 6.8 6.6 6.5 6.5 6.4 6.3 6.4 6.4 6.3 6.3 6.3 6.2
7.4 7.2 6.8 6.6 7.0 6.9 8.0 8.0 8.1 8.1 7.8 7.8 8.0 8.0 8.1 8.5 7.7 7.6 7.5 7.4 6.9 6.8 6.8 6.5 6.5 6.4 6.4 6.2 6.3 6.8 6.7 6.8 7.1 7.1 6.8 6.7 6.9 6.7 6.5 6.4 6.4 6.4 6.4 6.4 6.3 6.3 6.4 6.4 6.2
7.3 7.3 6.8 6.8 7.4 8.2 8.5 8.6 8.4 8.0 7.9 7.7 7.9 8.0 8.1 8.1 8.1 7.7 7.2 6.9 6.5 6.5 6.5 6.4 6.5 6.5 6.4 6.4 6.4 6.7 6.6 6.8 6.9 6.8 6.9 6.8 6.9 6.6 6.5 6.4 6.3 6.4 6.4 6.5 6.4 6.4 6.3 6.2 6.1
7.7 7.4 6.9 7.4 8.7 8.4 8.1 7.9 7.6 7.6 7.5 7.7 8.1 7.9 8.0 7.9 8.0 8.1 7.4 6.4 6.5 6.1 6.1 6.1 6.4 6.7 6.6 6.4 6.3 6.6 6.7 6.6 6.6 7.1 6.9 7.0 6.8 6.6 6.4 6.3 6.3 6.3 6.4 6.3 6.3 6.3 6.2 6.1 6.2
7.8 7.6 7.4 8.2 8.4 7.9 7.8 7.7 7.1 7.3 7.5 8.0 8.0 8.0 8.0 7.8 7.5 7.0 6.8 6.4 6.4 6.2 5.9 5.6 5.4 5.7 5.8 6.0 6.1 6.3 6.6 6.6 6.9 7.4 6.9 7.0 6.7 6.5 6.2 6.2 6.2 6.3 6.3 6.3 6.3 6.1 6.2 6.3 6.3
8.1 8.0 8.1 8.1 8.5 7.7 7.7 7.7 7.6 7.3 7.3 7.4 7.8 7.8 7.5 7.1 6.8 6.1 6.0 5.8 6.0 6.0 5.0 5.0 4.7 5.1 4.8 5.2 5.6 6.0 6.9 7.3 7.2 7.0 7.2 6.9 6.7 6.4 6.3 6.3 6.2 6.2 6.2 6.1 6.1 6.2 6.3 6.3 6.2
8.3 8.1 8.1 8.4 7.9 7.9 7.7 7.4 8.1 7.9 7.9 7.1 7.0 7.2 7.1 6.8 6.7 6.6 5.9 6.0 5.9 5.2 5.0 4.6 4.6 4.6 4.2 4.8 5.8 7.0 7.6 7.6 7.7 7.7 7.1 6.8 6.5 6.4 6.3 6.2 6.1 6.0 6.1 6.1 6.4 6.6 6.4 6.2 6.3
8.4 8.2 8.2 8.2 7.8 7.7 7.6 8.3 7.8 7.5 7.5 7.4 6.8 6.8 6.6 6.8 6.9 6.4 6.0 5.8 5.6 5.3 4.8 4.7 4.3 4.4 4.8 5.8 6.7 7.5 7.7 7.9 7.7 7.3 7.1 6.9 6.6 6.4 6.4 6.2 6.2 6.2 6.3 6.3 6.4 6.3 6.2 6.3 6.2
8.5 8.0 7.9 8.4 7.9 7.6 7.6 7.9 7.9 7.9 7.3 6.5 6.8 6.8 6.5 6.5 6.4 6.3 5.9 6.0 5.4 5.0 4.9 4.9 4.7 4.8 5.4 6.2 6.7 7.5 8.1 7.9 7.4 7.3 7.1 6.9 6.9 6.6 6.4 6.5 6.6 6.8 6.5 6.3 6.4 6.3 6.1 5.9 5.9
8.6 8.3 8.5 8.3 8.1 8.1 8.1 7.8 7.6 7.3 7.2 6.8 7.0 6.6 6.5 6.4 5.9 6.2 6.1 5.7 5.6 5.4 4.6 4.5 4.9 5.2 5.7 6.7 7.1 7.4 7.9 7.9 7.8 7.5 7.2 6.8 6.5 6.5 6.5 6.6 6.7 6.6 6.4 5.7 5.9 5.8 5.9 5.8 5.7
8.9 8.7 8.5 8.1 8.2 8.2 7.8 7.5 7.2 7.1 6.7 6.6 6.7 6.3 6.1 6.1 5.7 5.8 5.3 4.9 5.3 4.9 4.9 4.9 5.1 6.1 7.0 7.3 7.7 7.8 7.7 7.5 7.4 7.0 6.8 6.6 6.6 6.5 6.6 6.5 6.7 6.2 6.1 6.1 6.3 6.0 5.8 6.1 6.3
8.8 8.9 8.6 8.2 8.3 7.8 7.5 7.6 7.7 6.8 6.6 6.3 6.3 6.3 6.1 6.1 5.8 5.7 5.3 5.7 5.6 5.1 5.5 5.6 6.8 6.9 6.9 7.0 7.2 7.2 7.3 7.3 7.1 6.8 6.6 6.7 6.5 6.7 6.6 6.6 6.6 6.2 6.4 6.6 6.4 6.2 6.2 6.1 6.0
9.0 9.2 8.7 8.3 8.3 7.8 7.5 7.6 7.9 7.2 6.9 6.7 6.2 6.6 6.3 6.4 6.3 5.9 5.4 5.7 6.5 6.0 7.2 7.0 6.6 6.7 7.0 7.3 7.2 7.1 7.2 7.3 6.8 6.8 6.7 6.5 6.9 6.8 6.6 6.6 6.3 6.3 6.3 6.4 6.3 6.0 6.1 6.1 6.0
8.8 9.1 8.9 8.4 8.0 7.8 7.5 7.9 7.9 7.6 7.6 7.0 6.7 7.1 6.8 6.4 6.7 7.2 6.6 6.9 6.9 6.1 6.5 6.5 6.5 6.5 6.7 6.9 7.0 6.9 6.8 6.7 6.7 6.6 6.6 6.5 6.4 6.3 6.5 6.4 6.2 6.3 6.1 6.1 5.8 5.9 6.0 6.0 6.0
8.9 8.7 8.1 7.9 7.8 7.8 7.9 8.4 7.8 7.7 8.0 7.7 6.9 7.0 7.0 7.1 7.3 6.8 6.7 6.4 6.4 6.5 6.7 6.6 6.8 6.9 6.8 6.8 7.0 7.0 7.0 7.0 6.9 6.8 6.7 6.6 6.2 6.2 6.1 6.1 5.9 5.9 5.8 5.7 5.9 6.0 6.1 6.1 6.2
8.9 8.7 8.5 7.9 7.9 7.5 7.9 8.3 8.4 8.2 8.2 7.3 7.6 7.4 7.4 7.2 7.2 7.2 7.2 6.7 6.9 6.7 7.0 7.1 7.1 7.1 7.2 7.2 7.2 7.3 7.1 6.9 6.7 6.8 6.6 6.5 6.0 5.8 5.9 6.0 5.9 5.9 5.8 6.0 6.1 6.1 6.1 6.3 6.4
8.5 8.5 8.4 8.4 8.4 7.7 8.0 8.4 8.1 8.0 7.9 8.0 7.2 7.1 7.1 7.2 7.6 7.7 7.2 6.9 6.8 7.1 7.3 7.1 7.1 7.0 6.9 6.8 6.9 6.8 6.8 6.7 6.9 6.7 6.5 6.2 6.0 5.8 5.8 6.1 6.2 5.7 5.9 6.2 6.2 6.3 6.4 6.5 6.7
8.4 8.7 8.5 8.6 9.0 9.0 8.7 8.4 8.0 7.9 7.8 7.6 7.3 7.3 7.1 7.4 7.7 7.7 7.4 7.2 7.4 7.5 7.3 7.1 7.0 7.0 7.1 7.2 7.1 7.1 7.1 7.1 6.9 6.7 6.6 6.6 6.4 6.2 6.2 6.2 6.0 6.0 6.1 6.2 6.3 6.4 6.6 6.8 6.7
8.2 8.3 8.4 8.4 8.7 8.8 9.0 8.7 8.1 8.3 8.1 7.6 7.6 7.6 7.6 7.5 7.4 7.6 7.8 7.9 7.8 7.8 7.6 7.6 7.5 7.4 7.3 7.3 7.1 7.0 7.0 6.8 6.7 6.7 6.7 6.4 6.3 6.3 6.2 6.0 5.9 6.1 6.2 6.3 6.5 6.4 6.4 6.4 6.4
8.1 8.2 8.4 8.5 9.0 9.3 9.1 9.0 8.5 8.2 8.0 8.2 8.2 8.0 7.7 7.1 6.8 7.0 7.7 7.9 8.1 8.0 7.6 7.4 7.3 7.2 7.2 7.1 6.8 6.6 6.5 6.6 6.5 6.5 6.3 6.1 6.0 6.1 6.0 6.0 6.1 6.3 6.2 6.1 6.1 6.2 6.2 6.3 6.4
8.0 7.8 8.1 8.4 8.7 8.5 9.1 8.7 8.2 8.1 8.2 8.3 8.1 8.2 8.1 8.0 7.7 7.4 7.4 7.8 7.9 8.0 7.8 7.7 7.5 7.0 7.0 6.7 6.5 6.4 6.4 6.4 6.3 6.2 6.1 6.0 5.9 5.8 5.8 5.9 6.0 5.9 6.0 5.9 6.1 6.2 6.2 6.2 6.3
8.3 8.5 8.3 8.5 8.9 9.3 9.1 8.1 8.4 8.3 8.4 8.3 8.1 7.8 7.9 8.0 7.5 7.5 7.6 7.5 7.5 7.5 7.5 7.4 7.4 7.0 6.9 6.6 6.3 6.3 6.3 6.2 6.1 6.2 6.1 5.9 5.8 5.8 5.9 5.9 5.9 6.1 6.2 6.2 6.1 6.2 6.4 6.4 6.4
8.9 8.1 8.4 8.4 8.9 8.5 8.7 8.8 9.0 8.9 8.3 8.1 8.2 8.1 8.1 8.1 8.1 8.0 8.1 7.8 7.3 6.8 6.8 6.7 6.7 6.7 6.6 6.4 6.4 6.4 6.4 6.5 6.3 6.1 6.0 5.8 5.9 6.1 6.2 6.2 5.9 5.8 5.7 5.9 6.2 6.4 6.4 6.1 5.9
8.6 8.9 8.5 8.7 8.8 7.7 9.0 8.5 8.6 9.0 8.9 8.5 8.4 8.2 8.1 8.0 7.7 7.5 7.6 7.4 7.3 6.9 6.5 6.7 6.4 6.6 6.8 6.6 6.6 6.5 6.5 6.5 6.1 6.0 6.0 6.0 6.0 5.8 5.8 5.7 5.5 5.5 5.6 6.1 6.1 6.0 5.9 5.5 5.2
8.5 9.1 8.5 7.7 6.7 6.7 8.5 8.2 8.4 8.7 8.7 8.4 8.8 8.3 8.1 7.9 7.7 7.6 7.5 7.4 7.1 7.1 7.1 6.9 6.7 6.8 6.9 6.6 6.6 6.6 6.5 6.2 6.1 6.0 5.9 5.9 5.8 5.5 5.5 5.6 5.5 5.9 5.5 5.6 5.3 5.2 5.1 4.9 5.0
8.5 9.1 8.7 8.1 6.3 6.7 8.1 8.4 8.8 9.0 9.2 9.1 8.7 8.4 8.1 7.8 7.7 7.6 7.4 7.2 7.2 7.1 7.1 6.8 6.8 6.9 6.7 6.6 6.5 6.4 6.0 5.7 5.6 5.6 5.4 5.4 5.7 5.8 6.0 5.9 5.9 5.8 5.9 5.5 5.1 5.2 5.2 5.1 5.0
8.3 8.5 8.6 8.6 7.7 7.2 8.4 8.4 8.2 8.6 8.9 8.9 8.9 8.5 8.1 7.8 7.8 7.6 7.5 7.5 7.4 7.1 6.9 6.7 6.7 6.7 6.6 6.5 6.2 5.7 5.5 5.5 5.5 5.2 5.6 5.9 6.1 6.0 6.3 6.5 5.9 6.0 5.9 5.3 5.3 5.2 5.0 5.0 5.1
8.7 8.5 8.3 8.7 7.8 7.5 8.0 8.2 8.3 8.2 8.7 8.8 8.8 8.6 8.1 7.9 7.8 7.6 7.5 7.2 7.1 7.0 6.8 6.6 6.6 6.5 6.4 6.2 5.8 5.5 5.7 5.8 5.8 6.2 6.5 6.8 6.6 6.1 6.3 6.3 6.2 6.0 5.4 5.2 4.9 4.7 4.9 5.1 5.2
8.6 8.6 8.5 8.6 8.5 6.5 5.9 8.1 8.6 8.6 8.7 8.7 8.6 8.6 8.4 8.0 7.6 7.5 7.3 7.4 7.5 7.3 7.0 6.6 6.2 5.9 5.6 5.6 5.5 5.7 6.4 6.2 6.3 6.6 6.7 6.7 6.4 6.0 6.2 6.3 5.8 5.1 5.1 4.6 4.5 4.5 4.8 4.9 5.0
8.8 8.7 8.5 8.6 8.5 8.4 8.1 8.2 8.6 8.7 8.8 8.5 8.3 8.0 7.9 7.9 7.7 7.7 7.7 7.6 7.4 7.2 6.8 6.3 5.8 5.8 5.9 6.3 6.2 6.3 6.5 6.4 6.3 6.4 6.5 6.9 6.3 6.4 6.2 5.7 5.0 5.1 4.5 4.2 4.5 4.4 4.4 4.6 4.5
Wind_Speed
4 5 1 4 4 4 4 6 5 8 1 7 3 11 10 4 3 3 2 7 14 15 22 27 31 33 25 24 23 23 23 24 25 24 25 24 23 23 21 21 20 20 20 20 20 19 20 21 22
3 3 3 2 4 2 5 5 3 5 6 6 6 7 6 5 4 9 6 10 15 19 19 23 29 28 27 23 22 25 23 24 24 24 25 24 23 22 21 20 19 20 20 20 19 19 20 20 24
2 2 3 4 3 5 4 3 3 0 2 2 4 6 4 2 4 6 11 10 12 15 19 25 31 30 26 24 23 23 23 23 23 22 25 24 22 21 20 19 19 19 20 19 18 18 19 20 23
2 4 3 3 6 5 3 13 6 5 3 4 4 7 5 2 1 5 15 12 9 11 21 19 29 29 27 26 23 22 24 22 22 22 23 24 22 21 19 20 19 19 19 17 18 18 20 24 25
3 3 0 4 3 1 2 5 7 5 2 4 1 3 4 3 10 14 11 8 7 4 17 23 25 26 25 26 23 23 23 22 22 22 23 23 22 20 19 18 18 17 16 15 15 15 19 20 25
3 3 3 1 3 1 2 4 2 3 6 7 6 5 3 5 11 10 14 13 15 11 14 20 26 27 24 23 22 22 22 21 20 21 22 22 22 20 18 18 17 16 13 13 12 15 16 17 21
5 3 4 3 3 5 2 5 1 4 8 3 2 4 2 5 13 13 13 13 16 16 13 14 17 21 23 21 22 23 21 21 21 22 22 22 21 20 18 17 16 14 11 10 13 13 13 13 15
5 4 2 3 2 5 1 4 7 2 5 3 2 5 5 7 14 14 12 10 15 11 14 14 10 12 14 16 22 24 23 23 22 22 23 23 22 20 17 16 14 11 9 7 12 12 12 12 12
4 3 3 6 7 2 3 4 2 6 4 3 5 3 14 17 15 14 14 12 10 9 11 14 14 16 12 15 18 21 23 22 22 20 21 20 17 16 14 12 10 9 6 8 11 10 11 14 15
4 3 7 3 3 5 4 4 4 1 1 4 12 16 20 18 14 14 13 10 9 11 8 9 14 12 12 12 13 14 16 14 15 17 17 14 14 11 8 8 7 6 7 9 10 11 16 17 18
4 7 6 1 4 7 8 3 4 5 4 6 12 14 16 19 13 13 11 11 13 11 9 10 8 14 11 9 11 10 14 14 15 16 14 10 8 7 7 7 5 6 8 14 18 17 17 17 18
4 10 9 11 7 6 5 3 2 3 2 16 18 22 17 18 13 13 11 13 11 8 8 9 11 10 11 11 8 10 9 8 8 7 8 7 7 8 4 6 11 14 16 17 16 16 16 18 18
3 6 6 11 12 6 4 3 2 2 8 10 12 20 19 21 23 16 11 7 10 7 7 10 10 7 8 7 7 7 7 11 13 13 13 17 12 8 12 15 15 15 16 16 14 15 14 16 17
5 9 12 5 6 5 6 3 3 4 9 12 15 18 19 20 20 15 11 8 10 8 11 10 10 8 11 7 9 9 12 13 13 12 14 16 16 14 13 12 11 13 16 17 17 14 12 11 14
2 12 8 3 1 4 5 2 3 3 10 13 16 19 19 19 18 16 15 14 12 11 11 11 9 12 10 9 10 10 10 13 13 13 15 17 18 18 16 11 9 12 17 17 16 14 14 12 11
3 4 4 5 9 5 11 4 5 6 10 9 11 15 16 21 23 16 17 16 16 12 10 8 11 10 7 7 9 10 13 13 13 14 15 18 19 19 15 10 9 14 14 13 11 6 4 3 3
4 3 4 2 4 3 3 4 6 7 8 8 12 16 17 18 16 15 17 18 16 14 12 11 11 10 8 9 11 11 13 11 13 14 15 18 17 18 17 13 12 13 11 9 7 4 2 1 3
2 3 2 5 6 2 2 6 5 7 11 12 13 15 16 18 20 19 19 17 14 13 11 13 9 10 9 8 8 7 7 7 11 12 14 15 15 15 15 14 13 13 9 5 4 2 2 2 1
8 12 6 6 11 7 12 6 7 8 10 13 14 17 17 18 17 16 17 16 15 10 14 15 13 10 9 5 4 3 3 2 2 7 12 13 13 14 14 12 12 11 4 4 3 2 2 3 3
8 9 7 9 4 15 5 11 5 9 12 17 19 18 17 13 12 15 17 16 16 15 14 13 12 11 8 6 3 3 4 1 2 7 10 14 16 18 15 13 9 10 4 4 3 3 1 1 3
5 5 6 7 4 6 5 2 5 3 4 6 8 17 18 19 17 16 16 16 12 13 13 14 13 12 9 6 4 3 4 4 2 2 3 9 17 16 17 14 12 9 6 3 2 3 3 1 1
12 9 12 5 0 1 2 3 2 8 12 10 11 9 11 14 15 17 19 15 16 14 11 13 11 10 6 7 7 7 6 7 4 4 4 8 16 15 16 16 11 8 6 4 3 3 2 2 2
11 3 2 7 3 3 3 3 6 4 7 9 15 14 15 17 19 18 21 21 17 14 14 12 11 10 8 9 8 9 5 4 3 3 7 5 8 12 8 10 10 9 8 6 4 3 3 1 2
4 4 6 6 4 2 4 5 5 6 11 15 9 17 13 12 13 11 13 15 15 15 14 12 13 11 8 10 9 11 10 7 5 5 5 4 3 5 12 14 12 10 6 4 3 2 1 1 1
3 5 2 3 3 5 6 4 9 4 7 8 9 9 10 11 9 11 15 14 13 14 13 12 12 9 8 9 10 9 8 8 9 8 5 5 4 4 5 10 8 7 5 3 2 1 2 3 2
4 3 5 3 3 4 4 4 6 7 7 5 6 9 10 11 13 13 14 13 13 14 12 12 11 7 7 8 7 6 7 4 4 4 4 5 5 5 9 9 9 8 3 2 1 2 2 2 2
3 2 6 5 1 3 3 4 6 6 7 7 6 8 7 9 10 12 11 11 12 10 11 11 9 9 8 8 8 7 8 9 7 8 7 8 6 6 6 10 8 3 5 5 5 3 3 3 2
6 5 2 3 2 3 4 4 5 2 2 1 4 8 8 8 8 8 10 9 8 9 8 8 10 14 11 11 10 10 10 9 10 9 8 6 7 7 7 6 5 4 6 6 6 4 2 1 2
1 2 1 4 5 4 1 5 5 8 8 10 9 8 11 12 11 11 11 11 12 11 12 10 11 11 9 9 9 9 8 10 9 8 6 6 4 7 5 4 3 3 2 4 3 1 2 4 4
4 5 5 5 4 1 4 5 4 9 10 8 8 7 10 13 14 14 15 15 13 14 12 13 14 15 12 13 13 11 11 8 7 7 5 4 4 6 5 4 2 1 0 2 1 3 3 4 4
Wind_Direction
190 174 108 41 64 69 256 265 260 301 106 316 30 100 117 70 45 180 41 132 138 146 141 137 134 128 130 128 127 121 115 114 111 108 105 103 101 99 97 96 93 88 82 76 69 62 53 49 46
180 149 47 80 92 88 265 246 279 194 174 179 71 106 41 78 57 107 104 139 147 147 144 137 127 124 129 131 129 122 121 117 113 111 108 105 104 102 101 98 96 91 85 77 69 61 55 49 48
232 148 96 138 151 201 224 266 207 98 198 178 112 66 77 31 46 130 122 150 141 141 141 138 128 128 130 130 127 122 119 113 113 115 113 109 107 105 104 101 97 92 87 81 72 60 52 46 54
130 17 20 111 250 274 274 324 235 179 128 69 92 68 68 356 348 79 131 139 136 143 137 136 130 130 130 127 125 121 116 118 117 120 116 115 114 111 111 107 101 96 88 81 71 58 47 42 40
40 71 328 56 261 310 19 354 23 17 344 33 27 77 51 41 73 76 117 123 110 115 140 133 122 119 125 125 125 123 123 123 128 123 121 118 115 115 113 107 102 97 93 86 78 66 56 46 40
24 102 53 188 265 211 137 341 100 43 7 345 65 105 70 78 74 81 93 122 111 87 91 127 130 129 122 124 126 124 124 128 127 128 125 123 122 122 119 115 110 105 103 93 85 70 57 44 45
142 93 223 202 244 297 256 159 96 168 134 238 169 74 60 90 104 104 101 110 120 118 125 129 126 126 132 125 128 128 131 134 140 133 131 129 129 128 128 122 118 116 107 97 83 71 60 41 38
128 114 333 261 296 257 345 346 2 232 171 114 228 144 170 145 111 102 94 96 104 120 127 110 141 130 124 129 136 139 142 145 141 141 137 134 136 134 131 126 126 119 101 85 69 61 55 48 54
122 66 301 254 173 192 99 18 343 307 340 63 15 67 122 128 117 114 120 132 132 138 137 136 189 161 136 141 145 147 147 148 145 138 140 140 141 138 134 138 129 112 110 71 66 58 61 59 55
111 120 237 234 136 148 114 144 229 66 357 64 84 96 118 126 127 127 129 126 133 149 154 167 182 139 147 157 150 157 150 152 145 144 144 144 133 134 135 129 119 104 65 57 59 54 71 63 54
186 227 147 262 139 133 151 222 216 159 85 177 135 123 129 124 129 122 136 155 155 167 172 205 155 159 154 164 169 160 149 156 148 143 150 133 141 150 141 103 97 93 75 84 87 69 58 55 54
230 243 166 176 138 134 183 141 256 105 111 129 146 137 138 117 131 136 156 166 178 193 181 172 165 171 172 171 172 161 150 136 115 149 167 181 141 152 125 103 78 103 95 82 78 71 60 55 48
249 270 111 153 144 161 106 145 253 303 119 134 137 129 137 136 145 170 196 171 181 197 169 162 174 184 164 150 154 142 130 128 128 113 118 127 118 113 107 97 102 100 98 91 82 70 57 43 37
313 89 109 89 139 150 137 262 23 304 181 129 133 136 147 158 167 174 177 194 181 201 151 168 176 141 143 129 132 135 132 126 117 112 117 119 119 117 105 107 108 99 91 85 79 73 63 50 40
224 96 87 60 232 200 143 278 247 37 122 138 145 154 166 179 172 181 178 185 191 172 155 147 126 139 138 136 124 112 118 113 102 112 116 121 125 122 120 114 97 98 96 86 75 62 55 43 29
36 50 106 228 188 220 173 197 202 214 130 173 147 160 162 174 187 187 179 186 176 166 151 136 143 146 127 119 113 111 112 115 121 122 123 125 127 125 117 105 92 104 102 96 82 66 57 58 46
12 88 125 272 286 138 107 228 245 157 162 179 162 167 170 176 188 192 192 177 173 165 152 140 146 140 121 112 112 112 118 122 120 122 125 132 130 126 116 104 106 109 96 75 83 65 107 67 19
329 224 279 198 246 285 232 247 284 171 155 173 170 168 172 176 189 194 177 176 163 166 151 147 145 131 127 117 108 94 96 97 130 141 140 137 132 126 116 109 113 113 93 78 88 108 40 97 68
343 303 291 244 210 176 217 226 210 175 160 160 165 166 176 189 198 180 172 170 167 157 154 158 149 150 139 135 122 115 139 143 136 145 150 141 137 142 126 121 118 109 101 127 147 138 79 32 11
325 281 269 302 240 181 168 232 211 179 180 171 169 173 178 174 158 173 172 171 172 164 166 158 162 160 163 158 142 140 136 167 142 173 172 158 145 140 135 136 131 130 129 138 102 92 86 7 32
287 251 291 261 337 183 120 15 165 180 189 191 200 180 179 175 162 168 170 172 165 167 170 172 170 171 168 152 124 80 86 76 105 182 182 177 160 158 150 149 151 152 134 131 112 117 112 144 293
296 280 233 286 25 158 56 218 252 194 200 186 199 191 183 182 168 167 169 168 170 177 171 173 169 172 180 161 160 163 170 169 196 178 167 177 164 162 165 166 154 128 106 98 100 107 117 127 353
248 73 229 291 99 67 327 73 268 176 185 190 207 195 190 184 178 172 176 176 172 163 171 170 176 182 186 179 172 172 176 185 148 148 168 173 173 169 148 132 126 115 115 116 110 84 73 121 181
298 111 40 17 34 25 261 154 264 217 206 210 179 199 195 188 190 163 167 160 173 174 168 174 183 191 191 181 177 180 182 173 156 167 178 179 122 107 110 116 117 110 97 86 86 94 66 8 275
130 71 357 360 16 221 294 130 245 217 247 201 200 159 169 174 176 158 159 166 168 177 182 178 180 184 180 179 181 183 178 169 176 169 166 136 125 119 120 113 91 73 66 69 69 46 343 328 304
351 134 151 232 214 249 258 216 257 298 234 224 197 171 133 166 174 171 165 169 169 174 181 185 177 159 163 162 146 138 139 131 123 115 99 81 73 55 62 96 113 106 124 88 40 24 13 42 54
179 184 178 114 318 49 256 293 335 339 6 1 123 122 145 155 168 165 159 163 169 171 179 180 159 150 148 141 130 128 128 123 104 77 82 108 108 142 128 103 93 118 70 34 31 27 43 59 8
161 159 134 26 235 254 294 280 236 182 240 342 182 173 162 149 153 157 168 167 170 173 161 157 161 160 157 150 149 145 133 115 123 130 129 112 139 140 112 100 131 73 50 46 68 76 48 338 303
188 193 186 132 143 175 208 271 225 204 192 201 212 184 167 173 173 172 175 177 174 169 161 158 156 154 148 125 107 104 110 117 104 103 130 133 112 100 127 116 101 68 83 109 115 114 256 292 307
120 243 178 125 238 144 155 264 261 209 215 189 208 205 194 186 181 178 179 173 175 179 172 168 175 169 148 127 117 116 118 116 121 113 102 120 103 132 127 134 89 243 280 214 201 275 279 260 266